Location: Tarrant
(32.8168°N, 97.0772°W)
Time: 02:42:23
(UTC+00:00)

SL-16 R/B - Visible Passes

Search period start: 29 March 2023 00:00
Search period end: 08 April 2023 00:00
Orbit: 842 x 846 km, 71.0° (Epoch: 28 March)

Date Brightness Start Highest point End Pass type
(mag) Time Alt. Az. Time Alt. Az. Time Alt. Az.
31 Mar 4.3 11:49:58 10° SSE 11:54:52 31° ESE 11:59:48 10° NE visible
01 Apr 4.3 11:35:39 10° SSE 11:40:29 30° ESE 11:45:20 10° NE visible
02 Apr 4.3 11:21:21 10° SSE 11:26:06 28° ESE 11:30:52 10° NE visible
03 Apr 4.3 11:07:03 10° SSE 11:11:43 27° ESE 11:16:23 10° NE visible
04 Apr 4.3 10:52:44 10° SSE 10:57:19 26° ESE 11:01:55 10° NE visible
05 Apr 4.4 10:38:27 10° SSE 10:42:56 25° ESE 10:47:26 10° NE visible
06 Apr 4.4 10:24:10 10° SSE 10:28:33 24° E 10:32:57 10° NE visible
07 Apr 4.4 10:09:54 10° SSE 10:14:11 22° E 10:18:28 10° NE visible
